Location: Splawn
(30.9202°N, 96.9858°W)
Time: 17:16:25
(UTC+00:00)

S-56A Canister/Altair - Visible Passes

Search period start: 19 February 2020 00:00
Search period end: 29 February 2020 00:00
Orbit: 633 x 2499 km, 38.9° (Epoch: 18 February)

Date Brightness Start Highest point End Pass type
(mag) Time Alt. Az. Time Alt. Az. Time Alt. Az.
19 Feb 10.0 01:47:52 10° WNW 01:56:51 34° SW 02:03:09 10° SSE visible
20 Feb 10.0 01:13:54 10° WNW 01:24:07 42° SW 01:31:06 10° SSE visible
21 Feb 9.9 00:39:57 10° WNW 00:51:17 50° SW 00:58:54 10° SSE visible
22 Feb 11.0 02:17:30 10° W 02:21:10 13° WSW 02:24:23 10° SSW visible
23 Feb 10.9 01:42:16 10° W 01:48:32 17° SW 01:53:37 10° SSW visible
24 Feb 10.9 01:07:37 10° W 01:15:49 23° SW 01:22:10 10° S visible
25 Feb 10.9 00:33:13 10° WNW 00:43:03 28° SW 00:50:24 10° S visible
27 Feb 11.4 12:24:41 10° SSE 12:30:53 18° SE 12:38:19 10° E visible
28 Feb 11.5 11:53:50 10° SSE 11:58:05 13° ESE 12:02:53 10° E visible
